NIMBUS 2 DEB

Satellite information

Favourite Embed

Satellite Type and Status

DEBRISIN ORBIT

Key statistics

Satellite NIMBUS 2 DEB at a glance.

Uptime

21763

Days in orbit

Revolutions

≈ 13.4

Per day

Orbit

SSO

Sun Synchronous Orbit

Inclination

100.2

Latest

Satellite identification and parameters

Extended collection of information and parameters for NIMBUS 2 DEB.

Object identification

Identified? True

Debris? True

Object name: NIMBUS 2 DEB

International designator: 1966-040CC

Object number (NORAD): 59973

Object ID (CCSDS): 59973

Country: UNITED STATES OF AMERICA (US)

Current information (Y/N): Y

RCS size: SMALL

Orbital parameters

Period: 107.299 minutes

Inclination: 100.2374 deg

SMA: 7479.798 km

Apoapsis: 1140.509 km

Periapsis: 1062.817 km

RAAN: 143.1842 deg

Eccentricy: 0.00519345

Argument of periapsis: 297.2943 deg

Mean anomaly: 62.2902 deg

Mean motion: 13.42047665 rev/day

Mean motion (dot): 0.00002944 rev/day2

B* drag term: 0.0052800353 1/REarth

Two-line elements (TLE)

Creation date: Dec. 6, 2025, 6 a.m.

Reference frame: TEME

Reference center: EARTH

Epoch: Dec. 5, 2025, 5:48 p.m. UTC

TLE line 0: 0 NIMBUS 2 DEB

TLE line 1: 1 59973U 66040CC 25339.74172044 .00002944 00000-0 52800-2 0 9996

TLE line 2: 2 59973 100.2374 143.1842 0051935 297.2943 62.2902 13.42047665390094

Live tracking on map

Real-time ground track for satellite NIMBUS 2 DEB.

In-orbit conjunctions

A list of the most updated potential collisions computed for object NIMBUS 2 DEB.

Target Orbit TCA Probability of collision Miss distance Type
SL-16 DEB LEO 2024-08-03 02:09:28 0.001241266 254.0 (m) DEBRIS
NIMBUS 2 DEB SSO 2024-07-14 21:56:14 0.0003679919 221.0 (m) DEBRIS

Associated space launch

Nimbus 2, the second in a series of second-generation meteorological research-and-development satellites, added an additional medium-resolution infrared radiometer (MRIR) compared to Nimbus 1.

NIMBUS 2 DEB was lifted into orbit during the mission ‘Thor SLV-2A Agena B | Nimbus 2’, on board a Thor SLV-2A Agena B space rocket.

The launch took place on May 15, 1966, 7:55 a.m. from Space Launch Complex 2E.

For more information about the launch, click the button.

Launch to space Thor SLV-2A Agena B | Nimbus 2
Thor SLV-2A Agena B | Nimbus 2

Agency: N/A

Status: Launch Successful

Launch date: May 15, 1966, 7:55 a.m. UTC

Rocket: Thor SLV-2A Agena B

Launch pad: Space Launch Complex 2E

Location: Vandenberg SFB, CA, USA

...

Latest news about this satellite

There are no fresh news available about this satellite. Check back as we update our databases every day.


Newsletter sign-up

Weekly statistics, charts and insights to help you stay on top of the space industry.